| time (UTC) | temp C | wind direction | speed KPH | gust KPH | rain 1hr cm | rain 24hr cm | rain mn cm | humidity % | barometer mb |
| 20260507010403 | 17 | 127 | 3.2 | 3.2 | 0.00 | 0.00 | 0.00 | 80 | 1012.7 |
| 20260507005900 | 17 | 97 | 1.6 | 4.8 | 0.00 | 0.00 | 0.00 | 80 | 1012.8 |
| 20260507005357 | 17 | 130 | 4.8 | 6.4 | 0.00 | 0.00 | 0.00 | 80 | 1012.9 |
| 20260507004853 | 17 | 64 | 0.0 | 3.2 | 0.00 | 0.00 | 0.00 | 80 | 1012.9 |
| 20260507004350 | 17 | 134 | 3.2 | 6.4 | 0.00 | 0.00 | 0.00 | 80 | 1013.1 |
| 20260507003848 | 17 | 55 | 1.6 | 3.2 | 0.00 | 0.00 | 0.00 | 79 | 1012.9 |
| 20260507003343 | 17 | 137 | 3.2 | 3.2 | 0.00 | 0.00 | 0.00 | 79 | 1012.3 |
| 20260507002838 | 17 | 103 | 1.6 | 4.8 | 0.00 | 0.00 | 0.00 | 79 | 1012.3 |
| 20260507002334 | 17 | 126 | 1.6 | 4.8 | 0.00 | 0.00 | 0.00 | 78 | 1012.7 |
| 20260507001832 | 17 | 156 | 1.6 | 6.4 | 0.00 | 0.00 | 0.00 | 79 | 1012.3 |
| 20260507001329 | 17 | 149 | 0.0 | 4.8 | 0.00 | 0.00 | 0.00 | 78 | 1012.2 |
| 20260507000825 | 17 | 108 | 1.6 | 4.8 | 0.00 | 0.00 | 0.00 | 79 | 1012.4 |
| 20260507000321 | 17 | 120 | 0.0 | 4.8 | 0.00 | 0.00 | 0.00 | 78 | 1012.5 |
| 20260506235818 | 17 | 193 | 0.0 | 4.8 | 0.00 | 0.00 | 0.00 | 79 | 1012.3 |
| 20260506235314 | 17 | 70 | 3.2 | 4.8 | 0.00 | 0.00 | 0.00 | 78 | 1012.6 |
| 20260506234810 | 17 | 132 | 6.4 | 6.4 | 0.00 | 0.00 | 0.00 | 79 | 1012.4 |
| 20260506234308 | 17 | 133 | 3.2 | 4.8 | 0.00 | 0.00 | 0.00 | 78 | 1012.1 |
| 20260506233806 | 17 | 136 | 0.0 | 4.8 | 0.00 | 0.00 | 0.00 | 79 | 1012.4 |
| 20260506233302 | 17 | 128 | 3.2 | 6.4 | 0.00 | 0.00 | 0.00 | 78 | 1012.7 |
| 20260506232759 | 17 | 129 | 3.2 | 4.8 | 0.00 | 0.00 | 0.00 | 78 | 1012.2 |
| 20260506232254 | 17 | 131 | 3.2 | 3.2 | 0.00 | 0.00 | 0.00 | 79 | 1012.1 |
| 20260506231751 | 17 | 139 | 1.6 | 3.2 | 0.00 | 0.00 | 0.00 | 79 | 1012.1 |
| 20260506231249 | 17 | 151 | 3.2 | 6.4 | 0.00 | 0.00 | 0.00 | 79 | 1012.0 |
| 20260506230745 | 17 | 149 | 4.8 | 8.0 | 0.00 | 0.00 | 0.00 | 77 | 1012.1 |
| 20260506230243 | 17 | 118 | 1.6 | 6.4 | 0.00 | 0.00 | 0.00 | 78 | 1012.0 |
| 20260506225739 | 17 | 117 | 4.8 | 4.8 | 0.00 | 0.00 | 0.00 | 79 | 1012.1 |
| 20260506225236 | 17 | 117 | 3.2 | 6.4 | 0.00 | 0.00 | 0.00 | 77 | 1012.0 |
| 20260506224732 | 17 | 62 | 3.2 | 6.4 | 0.00 | 0.00 | 0.00 | 79 | 1012.3 |
| 20260506224230 | 17 | 105 | 8.0 | 8.0 | 0.00 | 0.00 | 0.00 | 78 | 1012.2 |
| 20260506223726 | 17 | 64 | 1.6 | 4.8 | 0.00 | 0.00 | 0.00 | 77 | 1011.9 |
| 20260506223222 | 17 | 133 | 3.2 | 6.4 | 0.00 | 0.00 | 0.00 | 77 | 1012.3 |
| 20260506222719 | 17 | 6 | 0.0 | 4.8 | 0.00 | 0.00 | 0.00 | 77 | 1012.0 |
| 20260506222214 | 17 | 89 | 0.0 | 3.2 | 0.00 | 0.00 | 0.00 | 77 | 1012.3 |
| 20260506221712 | 17 | 131 | 4.8 | 6.4 | 0.00 | 0.00 | 0.00 | 78 | 1012.1 |
| 20260506221210 | 17 | 110 | 1.6 | 9.7 | 0.00 | 0.00 | 0.00 | 77 | 1011.9 |
| 20260506220707 | 17 | 141 | 3.2 | 4.8 | 0.00 | 0.00 | 0.00 | 77 | 1012.1 |
| 20260506220202 | 17 | 42 | 3.2 | 4.8 | 0.00 | 0.00 | 0.00 | 78 | 1011.9 |
| 20260506215659 | 18 | 358 | 3.2 | 8.0 | 0.00 | 0.00 | 0.00 | 75 | 1012.0 |
| 20260506215154 | 18 | 151 | 3.2 | 4.8 | 0.00 | 0.00 | 0.00 | 76 | 1012.3 |
| 20260506214651 | 18 | 61 | 3.2 | 8.0 | 0.00 | 0.00 | 0.00 | 75 | 1012.1 |
| 20260506214149 | 18 | 120 | 4.8 | 6.4 | 0.00 | 0.00 | 0.00 | 75 | 1012.1 |
| 20260506213647 | 18 | 73 | 0.0 | 6.4 | 0.00 | 0.00 | 0.00 | 75 | 1012.1 |
| 20260506213144 | 18 | 37 | 3.2 | 6.4 | 0.00 | 0.00 | 0.00 | 75 | 1011.8 |
| 20260506212642 | 18 | 28 | 3.2 | 4.8 | 0.00 | 0.00 | 0.00 | 75 | 1012.0 |
| 20260506212142 | 18 | 37 | 3.2 | 4.8 | 0.00 | 0.00 | 0.00 | 75 | 1012.0 |
| 20260506211638 | 18 | 86 | 3.2 | 6.4 | 0.00 | 0.00 | 0.00 | 76 | 1011.7 |
| 20260506211135 | 18 | 74 | 1.6 | 6.4 | 0.00 | 0.00 | 0.00 | 75 | 1012.0 |
| 20260506210632 | 18 | 179 | 3.2 | 6.4 | 0.00 | 0.00 | 0.00 | 76 | 1012.0 |
| 20260506210128 | 18 | 96 | 3.2 | 8.0 | 0.00 | 0.00 | 0.00 | 75 | 1012.0 |
| 20260506205625 | 18 | 119 | 6.4 | 6.4 | 0.00 | 0.00 | 0.00 | 76 | 1012.1 |
| 20260506205120 | 18 | 107 | 0.0 | 8.0 | 0.00 | 0.00 | 0.00 | 75 | 1012.0 |
| 20260506204618 | 19 | 81 | 0.0 | 4.8 | 0.00 | 0.00 | 0.00 | 75 | 1012.3 |
| 20260506204115 | 19 | 155 | 1.6 | 6.4 | 0.00 | 0.00 | 0.00 | 76 | 1012.1 |
| 20260506203613 | 19 | 155 | 4.8 | 6.4 | 0.00 | 0.00 | 0.00 | 76 | 1012.1 |
| 20260506203109 | 19 | 76 | 1.6 | 6.4 | 0.00 | 0.00 | 0.00 | 76 | 1012.1 |
| 20260506202608 | 19 | 93 | 3.2 | 3.2 | 0.00 | 0.00 | 0.00 | 77 | 1012.3 |
| 20260506202103 | 20 | 143 | 3.2 | 6.4 | 0.00 | 0.00 | 0.00 | 75 | 1012.3 |
| 20260506201601 | 20 | 44 | 1.6 | 6.4 | 0.00 | 0.00 | 0.00 | 75 | 1012.2 |
| 20260506201057 | 20 | 157 | 3.2 | 6.4 | 0.00 | 0.00 | 0.00 | 76 | 1012.0 |
| 20260506200554 | 20 | 141 | 4.8 | 4.8 | 0.00 | 0.00 | 0.00 | 76 | 1012.0 |
| 20260506200051 | 20 | 40 | 0.0 | 6.4 | 0.00 | 0.00 | 0.00 | 76 | 1012.1 |
| 20260506195547 | 20 | 46 | 0.0 | 4.8 | 0.00 | 0.00 | 0.00 | 77 | 1011.8 |
| 20260506195043 | 20 | 317 | 0.0 | 6.4 | 0.00 | 0.00 | 0.00 | 77 | 1012.1 |
| 20260506194541 | 20 | 136 | 4.8 | 6.4 | 0.00 | 0.00 | 0.00 | 78 | 1011.9 |
| 20260506194037 | 20 | 112 | 3.2 | 6.4 | 0.00 | 0.00 | 0.00 | 77 | 1011.8 |
| 20260506193535 | 20 | 133 | 4.8 | 6.4 | 0.00 | 0.00 | 0.00 | 77 | 1011.9 |
| 20260506193032 | 20 | 116 | 1.6 | 6.4 | 0.00 | 0.00 | 0.00 | 77 | 1011.8 |
| 20260506192529 | 20 | 134 | 3.2 | 9.7 | 0.00 | 0.00 | 0.00 | 79 | 1012.1 |
| 20260506192025 | 20 | 104 | 1.6 | 6.4 | 0.00 | 0.00 | 0.00 | 78 | 1011.7 |
| 20260506191522 | 20 | 157 | 1.6 | 8.0 | 0.00 | 0.00 | 0.00 | 79 | 1011.8 |
| 20260506191018 | 21 | 134 | 6.4 | 9.7 | 0.00 | 0.00 | 0.00 | 77 | 1011.9 |
| 20260506190515 | 21 | 124 | 1.6 | 6.4 | 0.00 | 0.00 | 0.00 | 76 | 1011.9 |
| 20260506190012 | 22 | 152 | 4.8 | 8.0 | 0.00 | 0.00 | 0.00 | 75 | 1011.4 |
| 20260506185509 | 22 | 113 | 3.2 | 6.4 | 0.00 | 0.00 | 0.00 | 75 | 1011.7 |
| 20260506185006 | 23 | 351 | 3.2 | 6.4 | 0.00 | 0.00 | 0.00 | 74 | 1011.9 |
| 20260506184503 | 24 | 143 | 3.2 | 8.0 | 0.00 | 0.00 | 0.00 | 73 | 1011.7 |
| 20260506184000 | 25 | 212 | 1.6 | 4.8 | 0.00 | 0.00 | 0.00 | 73 | 1011.6 |
| 20260506183455 | 25 | 164 | 1.6 | 6.4 | 0.00 | 0.00 | 0.00 | 72 | 1011.6 |
| 20260506182953 | 25 | 231 | 3.2 | 8.0 | 0.00 | 0.00 | 0.00 | 71 | 1011.4 |
| 20260506182450 | 25 | 44 | 3.2 | 4.8 | 0.00 | 0.00 | 0.00 | 70 | 1011.3 |
| 20260506181947 | 25 | 145 | 0.0 | 6.4 | 0.00 | 0.00 | 0.00 | 68 | 1011.5 |
| 20260506181445 | 25 | 186 | 1.6 | 4.8 | 0.00 | 0.00 | 0.00 | 70 | 1011.0 |
| 20260506180941 | 25 | 34 | 8.0 | 8.0 | 0.00 | 0.00 | 0.00 | 68 | 1011.3 |
| 20260506180438 | 25 | 194 | 1.6 | 4.8 | 0.00 | 0.00 | 0.00 | 70 | 1011.6 |
| 20260506175935 | 24 | 43 | 3.2 | 6.4 | 0.00 | 0.00 | 0.00 | 72 | 1011.6 |
| 20260506175432 | 24 | 245 | 1.6 | 3.2 | 0.00 | 0.00 | 0.00 | 72 | 1011.4 |
| 20260506174928 | 23 | 127 | 1.6 | 4.8 | 0.00 | 0.00 | 0.00 | 71 | 1011.3 |
| 20260506174426 | 24 | 34 | 3.2 | 6.4 | 0.00 | 0.00 | 0.00 | 70 | 1011.3 |
| 20260506173923 | 23 | 89 | 0.0 | 4.8 | 0.00 | 0.00 | 0.00 | 73 | 1010.9 |
| 20260506173420 | 22 | 130 | 3.2 | 6.4 | 0.00 | 0.00 | 0.00 | 76 | 1011.0 |
| 20260506172917 | 22 | 73 | 1.6 | 6.4 | 0.00 | 0.00 | 0.00 | 74 | 1011.0 |
| 20260506172414 | 22 | 20 | 3.2 | 6.4 | 0.00 | 0.00 | 0.00 | 72 | 1011.3 |
| 20260506171911 | 23 | 149 | 3.2 | 6.4 | 0.00 | 0.00 | 0.00 | 71 | 1011.2 |
| 20260506171408 | 22 | 240 | 0.0 | 3.2 | 0.00 | 0.00 | 0.00 | 70 | 1011.4 |
| 20260506170906 | 22 | 159 | 0.0 | 4.8 | 0.00 | 0.00 | 0.00 | 73 | 1011.4 |
| 20260506170402 | 21 | 155 | 3.2 | 6.4 | 0.00 | 0.00 | 0.00 | 76 | 1011.4 |
| 20260506165901 | 21 | 121 | 1.6 | 9.7 | 0.00 | 0.00 | 0.00 | 76 | 1011.4 |
| 20260506165359 | 21 | 121 | 3.2 | 6.4 | 0.00 | 0.00 | 0.00 | 75 | 1011.3 |
| 20260506164854 | 21 | 107 | 6.4 | 6.4 | 0.00 | 0.00 | 0.00 | 78 | 1011.5 |
| 20260506164351 | 21 | 128 | 4.8 | 4.8 | 0.00 | 0.00 | 0.00 | 77 | 1011.5 |
| 20260506163849 | 20 | 151 | 1.6 | 4.8 | 0.00 | 0.00 | 0.00 | 80 | 1011.5 |
| 20260506163343 | 20 | 112 | 3.2 | 6.4 | 0.00 | 0.00 | 0.00 | 81 | 1011.7 |
| 20260506162839 | 20 | 151 | 1.6 | 8.0 | 0.00 | 0.00 | 0.00 | 82 | 1011.8 |
| 20260506162337 | 18 | 110 | 1.6 | 6.4 | 0.00 | 0.00 | 0.00 | 84 | 1012.3 |
| 20260506161834 | 18 | 130 | 1.6 | 3.2 | 0.00 | 0.00 | 0.00 | 87 | 1012.3 |
| 20260506161331 | 18 | 103 | 3.2 | 3.2 | 0.05 | 0.00 | 0.00 | 89 | 1012.5 |
| 20260506160829 | 17 | 150 | 3.2 | 6.4 | 0.05 | 0.00 | 0.00 | 87 | 1012.6 |
| 20260506160326 | 18 | 82 | 3.2 | 4.8 | 0.00 | 0.00 | 0.00 | 84 | 1013.5 |
| 20260506155825 | 18 | 354 | 0.0 | 6.4 | 0.00 | 0.00 | 0.00 | 83 | 1014.1 |
| 20260506155321 | 19 | 175 | 0.0 | 6.4 | 0.00 | 0.00 | 0.00 | 83 | 1013.5 |
| 20260506153433 | 20 | 262 | 1.6 | 8.0 | 0.00 | 0.00 | 0.00 | 82 | 1011.7 |
| 20260506152930 | 20 | 75 | 3.2 | 8.0 | 0.00 | 0.00 | 0.00 | 82 | 1011.8 |
| 20260506152427 | 21 | 82 | 1.6 | 8.0 | 0.00 | 0.00 | 0.00 | 81 | 1011.6 |
| 20260506151926 | 21 | 137 | 4.8 | 9.7 | 0.00 | 0.00 | 0.00 | 81 | 1011.3 |
| 20260506151422 | 22 | 130 | 3.2 | 6.4 | 0.00 | 0.00 | 0.00 | 79 | 1010.9 |
| 20260506150920 | 24 | 331 | 1.6 | 6.4 | 0.00 | 0.00 | 0.00 | 76 | 1011.0 |
| 20260506150416 | 25 | 52 | 0.0 | 3.2 | 0.00 | 0.00 | 0.00 | 83 | 1011.0 |
| 20260506145913 | 25 | 124 | 0.0 | 1.6 | 0.00 | 0.00 | 0.00 | 83 | 1010.6 |
| 20260506145409 | 25 | 119 | 0.0 | 3.2 | 0.00 | 0.00 | 0.00 | 83 | 1010.7 |
| 20260506144907 | 25 | 62 | 3.2 | 4.8 | 0.00 | 0.00 | 0.00 | 82 | 1010.3 |
| 20260506144403 | 25 | 73 | 3.2 | 4.8 | 0.00 | 0.00 | 0.00 | 83 | 1010.3 |
| 20260506143902 | 25 | 130 | 3.2 | 6.4 | 0.00 | 0.00 | 0.00 | 83 | 1010.0 |
| 20260506143358 | 25 | 130 | 1.6 | 3.2 | 0.00 | 0.00 | 0.00 | 83 | 1009.7 |
| 20260506142857 | 25 | 143 | 3.2 | 6.4 | 0.00 | 0.00 | 0.00 | 83 | 1010.0 |
| 20260506142354 | 25 | 118 | 1.6 | 4.8 | 0.00 | 0.00 | 0.00 | 83 | 1009.9 |
| 20260506141852 | 25 | 121 | 3.2 | 6.4 | 0.00 | 0.00 | 0.00 | 83 | 1009.5 |
| 20260506141350 | 25 | 144 | 4.8 | 4.8 | 0.00 | 0.00 | 0.00 | 84 | 1009.3 |
| 20260506140848 | 25 | 129 | 3.2 | 4.8 | 0.00 | 0.00 | 0.00 | 85 | 1009.3 |
| 20260506140344 | 25 | 81 | 3.2 | 3.2 | 0.00 | 0.00 | 0.00 | 86 | 1009.7 |
| 20260506135841 | 25 | 128 | 3.2 | 3.2 | 0.00 | 0.00 | 0.00 | 87 | 1009.6 |
| 20260506135338 | 25 | 131 | 3.2 | 3.2 | 0.00 | 0.00 | 0.00 | 88 | 1009.8 |
| 20260506134834 | 24 | 69 | 3.2 | 3.2 | 0.00 | 0.00 | 0.00 | 88 | 1009.7 |
| 20260506134331 | 24 | 149 | 3.2 | 3.2 | 0.00 | 0.00 | 0.00 | 87 | 1009.3 |
| 20260506133828 | 24 | 142 | 1.6 | 4.8 | 0.00 | 0.00 | 0.00 | 87 | 1009.2 |
| 20260506133325 | 25 | 129 | 0.0 | 3.2 | 0.00 | 0.00 | 0.00 | 87 | 1009.2 |
| 20260506132822 | 25 | 119 | 3.2 | 3.2 | 0.00 | 0.00 | 0.00 | 87 | 1009.1 |
| 20260506132319 | 24 | 113 | 1.6 | 3.2 | 0.00 | 0.00 | 0.00 | 87 | 1009.1 |
| 20260506131817 | 24 | 66 | 3.2 | 3.2 | 0.00 | 0.00 | 0.00 | 87 | 1009.3 |
| 20260506131313 | 24 | 124 | 3.2 | 3.2 | 0.00 | 0.00 | 0.00 | 88 | 1009.0 |
| 20260506130810 | 24 | 129 | 4.8 | 4.8 | 0.00 | 0.00 | 0.00 | 88 | 1009.0 |
| 20260506130306 | 24 | 111 | 1.6 | 4.8 | 0.00 | 0.00 | 0.00 | 88 | 1008.8 |
| 20260506125804 | 24 | 124 | 3.2 | 4.8 | 0.00 | 0.00 | 0.00 | 88 | 1008.7 |
| 20260506125305 | 23 | 47 | 3.2 | 3.2 | 0.00 | 0.00 | 0.00 | 89 | 1008.7 |
| 20260506124801 | 23 | 95 | 0.0 | 3.2 | 0.00 | 0.00 | 0.00 | 89 | 1008.7 |
| 20260506124257 | 23 | 128 | 3.2 | 4.8 | 0.00 | 0.00 | 0.00 | 90 | 1008.6 |
| 20260506123755 | 23 | 123 | 1.6 | 4.8 | 0.00 | 0.00 | 0.00 | 90 | 1008.3 |
| 20260506123253 | 23 | 125 | 3.2 | 4.8 | 0.00 | 0.00 | 0.00 | 91 | 1008.6 |
| 20260506122750 | 23 | 89 | 0.0 | 3.2 | 0.00 | 0.00 | 0.00 | 91 | 1008.4 |
| 20260506122247 | 23 | 143 | 3.2 | 3.2 | 0.00 | 0.00 | 0.00 | 91 | 1008.4 |
| 20260506121745 | 23 | 122 | 3.2 | 3.2 | 0.00 | 0.00 | 0.00 | 91 | 1008.5 |
| 20260506121242 | 23 | 132 | 1.6 | 3.2 | 0.00 | 0.00 | 0.00 | 91 | 1008.7 |
| 20260506120739 | 23 | 111 | 3.2 | 3.2 | 0.00 | 0.00 | 0.00 | 91 | 1008.6 |
| 20260506120237 | 23 | 122 | 0.0 | 1.6 | 0.00 | 0.00 | 0.00 | 91 | 1008.8 |
| 20260506115734 | 23 | 108 | 0.0 | 3.2 | 0.00 | 0.00 | 0.00 | 91 | 1008.7 |
| 20260506115232 | 23 | 93 | 0.0 | 3.2 | 0.00 | 0.00 | 0.00 | 91 | 1008.6 |
| 20260506114730 | 23 | 75 | 0.0 | 3.2 | 0.00 | 0.00 | 0.00 | 91 | 1008.6 |
| 20260506114227 | 23 | 84 | 1.6 | 3.2 | 0.00 | 0.00 | 0.00 | 91 | 1008.7 |
| 20260506113726 | 23 | 109 | 0.0 | 1.6 | 0.00 | 0.00 | 0.00 | 91 | 1008.7 |
| 20260506113223 | 23 | 122 | 0.0 | 1.6 | 0.00 | 0.00 | 0.00 | 91 | 1008.6 |
| 20260506112719 | 23 | 117 | 1.6 | 3.2 | 0.00 | 0.00 | 0.00 | 90 | 1008.6 |
| 20260506112217 | 23 | 81 | 1.6 | 3.2 | 0.00 | 0.00 | 0.00 | 90 | 1008.7 |
| 20260506111714 | 23 | 50 | 1.6 | 1.6 | 0.00 | 0.00 | 0.00 | 90 | 1008.7 |
| 20260506111212 | 23 | 84 | 0.0 | 1.6 | 0.00 | 0.00 | 0.00 | 90 | 1008.7 |
| 20260506110708 | 23 | 70 | 1.6 | 1.6 | 0.00 | 0.00 | 0.00 | 90 | 1008.8 |
| 20260506110206 | 23 | 93 | 0.0 | 1.6 | 0.00 | 0.00 | 0.00 | 90 | 1008.6 |
| 20260506105703 | 23 | 127 | 0.0 | 1.6 | 0.00 | 0.00 | 0.00 | 90 | 1008.6 |
| 20260506105159 | 23 | 133 | 1.6 | 3.2 | 0.00 | 0.00 | 0.00 | 89 | 1008.5 |
| 20260506104657 | 23 | 85 | 1.6 | 1.6 | 0.00 | 0.00 | 0.00 | 89 | 1008.6 |
| 20260506104155 | 23 | 67 | 1.6 | 3.2 | 0.00 | 0.00 | 0.00 | 89 | 1008.4 |
| 20260506103652 | 23 | 94 | 0.0 | 1.6 | 0.00 | 0.00 | 0.00 | 89 | 1008.4 |
| 20260506103149 | 23 | 75 | 0.0 | 1.6 | 0.00 | 0.00 | 0.00 | 89 | 1008.4 |
| 20260506102647 | 23 | 108 | 1.6 | 3.2 | 0.00 | 0.00 | 0.00 | 89 | 1008.3 |
| 20260506102144 | 23 | 67 | 1.6 | 1.6 | 0.00 | 0.00 | 0.00 | 89 | 1008.3 |
| 20260506101641 | 23 | 95 | 0.0 | 3.2 | 0.00 | 0.00 | 0.00 | 89 | 1008.2 |
| 20260506101138 | 23 | 76 | 0.0 | 1.6 | 0.00 | 0.00 | 0.00 | 89 | 1008.0 |
| 20260506100636 | 23 | 144 | 0.0 | 1.6 | 0.00 | 0.00 | 0.00 | 89 | 1008.2 |
| 20260506100134 | 23 | 98 | 3.2 | 3.2 | 0.00 | 0.00 | 0.00 | 89 | 1008.1 |
| 20260506095632 | 23 | 127 | 1.6 | 3.2 | 0.00 | 0.00 | 0.00 | 89 | 1008.0 |
| 20260506095128 | 23 | 180 | 0.0 | 3.2 | 0.00 | 0.00 | 0.00 | 89 | 1008.1 |
| 20260506094626 | 23 | 109 | 1.6 | 6.4 | 0.00 | 0.00 | 0.00 | 89 | 1008.0 |
| 20260506094124 | 23 | 154 | 3.2 | 6.4 | 0.00 | 0.00 | 0.00 | 89 | 1007.8 |
| 20260506093622 | 23 | 121 | 4.8 | 8.0 | 0.00 | 0.00 | 0.00 | 89 | 1007.9 |
| 20260506093119 | 23 | 136 | 3.2 | 8.0 | 0.00 | 0.00 | 0.00 | 89 | 1007.8 |
| 20260506092617 | 23 | 174 | 0.0 | 6.4 | 0.00 | 0.00 | 0.00 | 88 | 1007.6 |
| 20260506092114 | 24 | 89 | 0.0 | 6.4 | 0.00 | 0.00 | 0.00 | 88 | 1007.8 |
| 20260506091612 | 24 | 119 | 0.0 | 6.4 | 0.00 | 0.00 | 0.00 | 87 | 1007.4 |
| 20260506091109 | 24 | 192 | 3.2 | 6.4 | 0.00 | 0.00 | 0.00 | 87 | 1007.6 |
| 20260506090607 | 24 | 71 | 1.6 | 9.7 | 0.00 | 0.00 | 0.00 | 87 | 1007.4 |
| 20260506085600 | 24 | 174 | 1.6 | 9.7 | 0.00 | 0.00 | 0.00 | 87 | 1007.2 |
| 20260506085056 | 24 | 174 | 0.0 | 8.0 | 0.00 | 0.00 | 0.00 | 86 | 1007.2 |
| 20260506084553 | 24 | 135 | 4.8 | 4.8 | 0.00 | 0.00 | 0.00 | 86 | 1007.5 |
| 20260506084049 | 24 | 205 | 0.0 | 3.2 | 0.00 | 0.00 | 0.00 | 86 | 1007.3 |
| 20260506083546 | 24 | 186 | 4.8 | 6.4 | 0.00 | 0.00 | 0.00 | 86 | 1007.4 |
| 20260506083043 | 24 | 148 | 3.2 | 4.8 | 0.00 | 0.00 | 0.00 | 86 | 1007.2 |
| 20260506082540 | 24 | 76 | 0.0 | 3.2 | 0.00 | 0.00 | 0.00 | 86 | 1007.5 |
| 20260506082036 | 24 | 152 | 3.2 | 6.4 | 0.00 | 0.00 | 0.00 | 86 | 1007.4 |
| 20260506081534 | 24 | 162 | 6.4 | 9.7 | 0.00 | 0.00 | 0.00 | 86 | 1007.4 |
| 20260506081031 | 24 | 73 | 3.2 | 8.0 | 0.00 | 0.00 | 0.00 | 86 | 1007.5 |
| 20260506080529 | 24 | 164 | 1.6 | 8.0 | 0.00 | 0.00 | 0.00 | 86 | 1007.6 |
| 20260506073513 | 24 | 217 | 1.6 | 14.5 | 0.00 | 0.00 | 0.00 | 84 | 1007.8 |
| 20260506073010 | 24 | 124 | 9.7 | 9.7 | 0.00 | 0.00 | 0.00 | 84 | 1007.8 |
| 20260506072507 | 25 | 125 | 4.8 | 6.4 | 0.00 | 0.00 | 0.00 | 84 | 1007.8 |
| 20260506072004 | 24 | 126 | 4.8 | 11.3 | 0.00 | 0.00 | 0.00 | 84 | 1007.8 |
| 20260506071502 | 25 | 56 | 1.6 | 6.4 | 0.00 | 0.00 | 0.00 | 84 | 1007.8 |
| 20260506070959 | 24 | 200 | 3.2 | 9.7 | 0.00 | 0.00 | 0.00 | 84 | 1007.7 |
| 20260506070456 | 24 | 141 | 6.4 | 14.5 | 0.00 | 0.00 | 0.00 | 84 | 1007.8 |
| 20260506062433 | 24 | 198 | 3.2 | 9.7 | 0.00 | 0.00 | 0.00 | 86 | 1007.8 |
| 20260506061929 | 24 | 144 | 1.6 | 8.0 | 0.00 | 0.00 | 0.00 | 86 | 1007.9 |
| 20260506061426 | 24 | 59 | 3.2 | 4.8 | 0.00 | 0.00 | 0.00 | 86 | 1007.7 |
| 20260506060924 | 24 | 180 | 3.2 | 9.7 | 0.00 | 0.00 | 0.00 | 86 | 1007.9 |
| 20260506060422 | 24 | 145 | 6.4 | 8.0 | 0.00 | 0.00 | 0.00 | 85 | 1007.9 |
| 20260506051354 | 24 | 127 | 3.2 | 9.7 | 0.00 | 0.00 | 0.00 | 86 | 1007.6 |
| 20260506050851 | 24 | 128 | 3.2 | 4.8 | 0.00 | 0.00 | 0.00 | 86 | 1007.7 |
| 20260506050349 | 25 | 72 | 1.6 | 9.7 | 0.00 | 0.00 | 0.00 | 86 | 1007.9 |
| 20260506044839 | 25 | 140 | 3.2 | 14.5 | 0.00 | 0.00 | 0.00 | 86 | 1007.9 |
| 20260506044337 | 25 | 192 | 3.2 | 6.4 | 0.00 | 0.00 | 0.00 | 86 | 1007.8 |
| 20260506043834 | 25 | 144 | 3.2 | 6.4 | 0.00 | 0.00 | 0.00 | 86 | 1007.8 |
| 20260506043331 | 25 | 98 | 1.6 | 4.8 | 0.00 | 0.00 | 0.00 | 86 | 1007.6 |
| 20260506042829 | 25 | 100 | 0.0 | 8.0 | 0.00 | 0.00 | 0.00 | 86 | 1007.8 |
| 20260506042328 | 25 | 72 | 4.8 | 9.7 | 0.00 | 0.00 | 0.00 | 86 | 1007.9 |
| 20260506041826 | 25 | 132 | 1.6 | 3.2 | 0.00 | 0.00 | 0.00 | 86 | 1007.8 |
| 20260506041323 | 25 | 118 | 1.6 | 3.2 | 0.00 | 0.00 | 0.00 | 85 | 1007.6 |
| 20260506040820 | 25 | 176 | 3.2 | 3.2 | 0.00 | 0.00 | 0.00 | 85 | 1007.6 |
| 20260506040317 | 25 | 177 | 3.2 | 6.4 | 0.00 | 0.00 | 0.00 | 85 | 1007.6 |
| 20260506035814 | 25 | 122 | 4.8 | 6.4 | 0.00 | 0.00 | 0.00 | 85 | 1007.6 |
| 20260506035311 | 25 | 140 | 3.2 | 6.4 | 0.00 | 0.00 | 0.00 | 85 | 1007.5 |
| 20260506034808 | 25 | 121 | 1.6 | 6.4 | 0.00 | 0.00 | 0.00 | 84 | 1007.6 |
| 20260506034305 | 25 | 68 | 1.6 | 4.8 | 0.00 | 0.00 | 0.00 | 84 | 1007.2 |
| 20260506033802 | 25 | 191 | 3.2 | 3.2 | 0.00 | 0.00 | 0.00 | 84 | 1007.2 |
| 20260506033259 | 25 | 132 | 3.2 | 4.8 | 0.00 | 0.00 | 0.00 | 83 | 1007.0 |
| 20260506032756 | 25 | 128 | 3.2 | 4.8 | 0.00 | 0.00 | 0.00 | 83 | 1007.2 |
| 20260506032253 | 25 | 80 | 3.2 | 4.8 | 0.00 | 0.00 | 0.00 | 83 | 1007.3 |
| 20260506031749 | 25 | 134 | 1.6 | 3.2 | 0.00 | 0.00 | 0.00 | 82 | 1007.2 |
| 20260506031247 | 25 | 120 | 0.0 | 6.4 | 0.00 | 0.00 | 0.00 | 82 | 1007.2 |
| 20260506030745 | 25 | 111 | 1.6 | 4.8 | 0.00 | 0.00 | 0.00 | 81 | 1007.0 |
| 20260506030242 | 25 | 133 | 4.8 | 9.7 | 0.00 | 0.00 | 0.00 | 81 | 1006.9 |
| 20260506025739 | 25 | 158 | 3.2 | 8.0 | 0.00 | 0.00 | 0.00 | 81 | 1006.7 |
| 20260506025235 | 25 | 132 | 3.2 | 6.4 | 0.00 | 0.00 | 0.00 | 80 | 1006.7 |
| 20260506024732 | 25 | 102 | 0.0 | 4.8 | 0.00 | 0.00 | 0.00 | 80 | 1006.7 |
| 20260506024229 | 25 | 140 | 3.2 | 6.4 | 0.00 | 0.00 | 0.00 | 80 | 1006.6 |
| 20260506023725 | 26 | 120 | 1.6 | 3.2 | 0.00 | 0.00 | 0.00 | 79 | 1006.6 |
| 20260506023223 | 26 | 114 | 3.2 | 3.2 | 0.00 | 0.00 | 0.00 | 79 | 1006.5 |
| 20260506022719 | 26 | 98 | 0.0 | 3.2 | 0.00 | 0.00 | 0.00 | 79 | 1006.5 |
| 20260506022217 | 26 | 124 | 3.2 | 6.4 | 0.00 | 0.00 | 0.00 | 79 | 1006.4 |
| 20260506021715 | 26 | 156 | 0.0 | 4.8 | 0.00 | 0.00 | 0.00 | 79 | 1006.3 |
| 20260506021212 | 26 | 141 | 0.0 | 4.8 | 0.00 | 0.00 | 0.00 | 78 | 1006.0 |
| 20260506020708 | 26 | 131 | 1.6 | 6.4 | 0.00 | 0.00 | 0.00 | 78 | 1006.0 |
| 20260506020206 | 26 | 135 | 1.6 | 4.8 | 0.00 | 0.00 | 0.00 | 78 | 1006.0 |
| 20260506015704 | 26 | 139 | 0.0 | 4.8 | 0.00 | 0.00 | 0.00 | 78 | 1006.0 |
| 20260506015201 | 26 | 145 | 3.2 | 6.4 | 0.00 | 0.00 | 0.00 | 77 | 1005.8 |
| 20260506014658 | 26 | 117 | 3.2 | 3.2 | 0.00 | 0.00 | 0.00 | 77 | 1005.8 |
| 20260506014154 | 26 | 131 | 0.0 | 4.8 | 0.00 | 0.00 | 0.00 | 76 | 1005.7 |
| 20260506013652 | 26 | 133 | 3.2 | 4.8 | 0.00 | 0.00 | 0.00 | 76 | 1005.5 |
| 20260506013149 | 26 | 113 | 0.0 | 3.2 | 0.00 | 0.00 | 0.00 | 75 | 1005.6 |
| 20260506012645 | 26 | 133 | 3.2 | 3.2 | 0.00 | 0.00 | 0.00 | 75 | 1005.6 |
| 20260506012142 | 26 | 137 | 3.2 | 6.4 | 0.00 | 0.00 | 0.00 | 75 | 1005.5 |
| 20260506011639 | 27 | 132 | 4.8 | 8.0 | 0.00 | 0.00 | 0.00 | 75 | 1005.5 |
| 20260506011135 | 27 | 112 | 3.2 | 4.8 | 0.00 | 0.00 | 0.00 | 74 | 1005.4 |